MDST

Cibao International Airport

Airport
ICAO code
MDST
IATA Code
STI
Summary
ICAO Region
CARSAM
ICAO Territory
Location

Santiago de los Caballeros, Dominican Republic

Serving
Santiago de los Caballeros
Elevation
565 ft
Coordinates
19° 24' 8" N , 70° 36' 7" W
KCC
Airport WX
Tropical Revolving Storm
Metar
Observation
MDST 011200Z 00000KT 9999 BKN016 20/19 Q1020 RESH
Station
Santiago
Date/Time
2023-02-01 12:00:00
Wind direction
Wind speed
00 kts
Lowest cloud amount
broken clouds
Temperature
20°C
Dew point
19°C
Humidity
93%
QNH
1020 hPa
Weather condition
n/a

Cibao International Airport, also known as Santiago Airport, is located in Santiago de los Caballeros, Dominican Republic's second-largest city

Climatology

Tropical savannah climate (Köppen climate classification Aw)

Runways

Designator Length Width Surface Rops
11/29 2620 45 ASP Yes/Yes

Airport map

Aerial View

SKYbrary Partners:

Safety knowledge contributed by: